Regional Weather Roundup
Issued by NWS Bismarck, ND

Home | Current Version | Previous Version | Text Only | Print | Product List | Glossary On
Versions: 1 2 3 4 5 6 7 8 9 10 11 12 13 14 15 16 17 18 19 20 21 22 23 24 25 26 27 28 29 30 31 32 33 34 35 36 37 38 39 40 41 42 43 44 45 46 47 48 49 50
000
ASUS43 KBIS 260910
RWRBIS

NWR BROADCAST TEXT
NATIONAL WEATHER SERVICE BISMARCK ND
400 AM CDT WED JUL 26 2017

NOTE: "FAIR" INDICATES FEW OR NO CLOUDS BELOW 12,000 FEET WITH NO
SIGNIFICANT WEATHER AND/OR OBSTRUCTIONS TO VISIBILITY.


CITY           SKY/WX    TMP DP  RH WIND       PRES   REMARKS
WILLISTON      CLEAR     56  47  71 N3        30.12R
MINOT          CLEAR     60  54  80 SW6       30.08R
MINOT AFB      CLEAR     55  53  91 W5        30.07R
BISMARCK       CLOUDY    62  56  80 CALM      30.08R
DICKINSON      CLEAR     60  49  66 NE8       30.10S
GARRISON         N/A     57  54  89 NW6       30.08S
HETTINGER ARPT MOCLDY    60  54  80 CALM      30.12R
JAMESTOWN      CLOUDY    62  58  86 NW6       30.03R
HAZEN          FAIR      55  52  88 CALM      30.11R
LINTON         FAIR     N/A N/A N/A CALM      30.07S
MANDAN         FAIR      64  55  72 NE6       30.09R
STANLEY        FAIR      55  55 100 CALM      30.14S
TIOGA          FAIR      52  52 100 CALM      30.14R
WATFORD CITY   FAIR      55  45  67 CALM      30.11S
$$

CITY           SKY/WX    TMP DP  RH WIND       PRES   REMARKS
GRAND FORKS    MOCLDY    61  59  93 W6        29.98R
GRAND FORKS AF MOCLDY    62  57  86 NW7       29.99R
DEVILS LAKE    CLEAR     63  60  90 W8        30.05R
FARGO          CLOUDY    64  58  80 NW5       29.98S
CAVALIER       FAIR      61  57  88 W7        29.98S
GRAFTON        FAIR      64  61  88 W9        30.00R
GWINNER        SUNNY     63  61  94 CALM      30.03S
LANGDON        FAIR      55  55 100 W7        30.03S
ROLLA            N/A     59  59 100 NW9       30.06R
$$

CITY           SKY/WX    TMP DP  RH WIND       PRES   REMARKS
ABERDEEN       CLOUDY    71  69  93 NE7       30.00R
MOBRIDGE       CLOUDY    69  63  81 N3        30.01S
BUFFALO          N/A     67  57  70 W5        30.06F
RAPID CITY     CLOUDY    70  52  52 NW10      30.11F
GLASGOW        CLEAR     59  44  57 E9        30.10R
SIDNEY         PTCLDY    61  45  55 N6        30.11R
WOLF POINT     CLEAR     59  42  53 E6        30.11R
GLENDIVE       CLEAR     66  44  45 NE6       30.11S
MILES CITY     PTCLDY    67  40  37 NE8       30.08F
BAKER          CLEAR     63  44  50 SE3       30.12R
$$

CITY           SKY/WX    TMP DP  RH WIND       PRES   REMARKS
BILLINGS       CLEAR     63  45  51 CALM      30.13S
GREAT FALLS    CLOUDY    57  38  48 CALM      30.10S
REGINA         CLEAR     50  48  93 S5        30.10F
ESTEVAN        CLEAR     54  52  94 NE3       30.10R
$$





USA.gov is the U.S. government's official web portal to all federal, state and local government web resources and services.